Tracking 22993 objects as of 9-May-2021
HD Live streaming from Space Station
objects crossing your sky now

COSMOS 397 DEB *

Track COSMOS 397 DEB * now!
10-day predictions


NORAD ID: 5414
Int'l Code: 1971-015BL
Perigee: 838.0 km
Apogee: 950.0 km
Inclination: 66.8 °
Period: 102.7 minutes
Semi major axis: 7265 km
RCS: 0.0112 m2 (small)
Launch date: February 25, 1971
Source: Commonwealth of Independent States (former USSR) (CIS)
Launch site: TYURATAM MISSILE AND SPACE COMPLEX (TTMTR)

Note: This is SATELLITE DEBRIS
aabbcc
Your satellite tracking list
Your tracking list is empty




NASA's NSSDC Master Catalog

Two Line Element Set (TLE):
1 05414U 71015BL  21129.44746824  .00000008  00000-0  55539-4 0  9991
2 05414  66.7700  22.7132 0077085 119.8238 241.0538 14.01998313563824
Source of the keplerian elements: AFSPC